Location: Dover
(48.8500°N, 53.9833°W)
Time: 06:42:55
(UTC+00:00)

Cosmos 2263 Rocket - Pass Details

Date: 14 November 2025
Orbit: 822 x 847 km, 71.0° (Epoch: 10 December)

Event Time Altitude Azimuth Distance (km) Brightness Sun altitude
Rises 20:39:51 0° 271° (W) 3,358 6.9 -7.4°
Reaches altitude 10° 20:43:31 10° 295° (WNW) 2,432 5.3 -7.9°
Maximum altitude 20:46:28 14° 328° (NNW) 2,141 4.5 -8.4°
Drops below altitude 10° 20:49:27 10° 0° (N) 2,445 4.4 -8.9°
Sets 20:53:10 0° 25° (NNE) 3,387 4.9 -9.5°
Enters shadow 20:53:20 - 26° (NNE) 3,439 5.0 -9.5°
